Weather History for KSAN - November, 2013

Change the Weather History Date:

Tuesday, November 5, 2013

  Actual Average Record
Temperature  
Mean Temperature 63 °F 64 °F  
Max Temperature 70 °F 71 °F 92 °F (1976)
Min Temperature 55 °F 56 °F 42 °F (1881)
Degree Days  
Heating Degree Days 2 2  
Month to date heating degree days 8 10  
Since 1 July heating degree days 30 31  
Cooling Degree Days 0 1  
Month to date cooling degree days 5 5  
Year to date cooling degree days 743 712  
Growing Degree Days 12 (Base 50)    
Moisture  
Dew Point 50 °F    
Average Humidity 62    
Maximum Humidity 77    
Minimum Humidity 47    
Precipitation  
Precipitation 0.00 in 0.02 in 1.69 in (1905)
Month to date precipitation T 0.12  
Year to date precipitation 3.63 7.92  
Since 1 July precipitation 0.30 0.89  
Snow  
Snow 0.00 in - - ()
Month to date snowfall 0.0  
Year to date snowfall 0.0  
Since 1 July snowfall 0.0  
Snow Depth 0.00 in    
Sea Level Pressure  
Sea Level Pressure 30.07 in    
Wind  
Wind Speed 4 mph (NNW)    
Max Wind Speed 13 mph    
Max Gust Speed 16 mph    
Visibility 10 miles    
Events      
T = Trace of Precipitation, MM = Missing Value Source: NWS Daily Summary

Daily Weather History Graph

Daily Weather History Graph

Search for Another Location

Airport or City:

Trip Planner

Search our weather history database for the weather conditions in past years. The results will help you decide how hot, cold, wet, or windy it might be!

Date:

Astronomy

Nov. 05, 2013 Rise Set
Actual Time 6:10 AM PST 4:54 PM PST
Civil Twilight 5:44 AM PST 5:19 PM PST
Nautical Twilight 5:15 AM PST 5:49 PM PST
Astronomical Twilight 4:46 AM PST 6:17 PM PST
Moon 8:25 AM PST (11/5) 7:04 PM PST (11/5)
Length of Visible Light 11h 35m
Length of Day
10h 43m
Waxing Crescent, 7% of the Moon is Illuminated
Nov 5
Waxing Crescent
Nov 9
First Quarter
Nov 17
Full
Nov 25
Last Quarter
Dec 2
New

Hourly Weather History & Observations

Time (PST) Temp. Dew Point Humidity Pressure Visibility Wind Dir Wind Speed Gust Speed Precip Events Conditions
12:51 AM 57.9 °F 50.0 °F 75% 29.96 in 10.0 mi Calm Calm - N/A   Partly Cloudy
1:51 AM 57.0 °F 48.9 °F 74% 29.98 in 10.0 mi Calm Calm - N/A   Partly Cloudy
2:51 AM 55.9 °F 48.9 °F 77% 29.98 in 10.0 mi Calm Calm - N/A   Clear
3:51 AM 55.9 °F 48.9 °F 77% 29.99 in 10.0 mi Calm Calm - N/A   Clear
4:51 AM 55.0 °F 48.0 °F 77% 30.01 in 10.0 mi Calm Calm - N/A   Clear
5:51 AM 55.0 °F 48.0 °F 77% 30.03 in 9.0 mi Calm Calm - N/A   Clear
6:51 AM 55.9 °F 48.0 °F 75% 30.05 in 10.0 mi ENE 3.5 mph - N/A   Clear
7:51 AM 59.0 °F 48.0 °F 67% 30.08 in 10.0 mi Calm Calm - N/A   Clear
8:51 AM 62.1 °F 48.9 °F 62% 30.09 in 10.0 mi Calm Calm - N/A   Clear
9:51 AM 66.0 °F 50.0 °F 56% 30.10 in 10.0 mi Calm Calm - N/A   Clear
10:51 AM 69.1 °F 48.0 °F 47% 30.09 in 10.0 mi WNW 9.2 mph - N/A   Clear
11:51 AM 69.1 °F 50.0 °F 51% 30.07 in 10.0 mi NW 9.2 mph - N/A   Clear
12:51 PM 69.1 °F 52.0 °F 54% 30.06 in 10.0 mi WNW 11.5 mph - N/A   Clear
1:51 PM 69.1 °F 52.0 °F 54% 30.05 in 10.0 mi NW 9.2 mph - N/A   Clear
2:51 PM 68.0 °F 53.1 °F 59% 30.06 in 10.0 mi NW 11.5 mph - N/A   Clear
3:51 PM 68.0 °F 54.0 °F 61% 30.07 in 10.0 mi NW 8.1 mph - N/A   Clear
4:51 PM 66.9 °F 54.0 °F 63% 30.07 in 10.0 mi NNW 8.1 mph - N/A   Clear
5:51 PM 66.0 °F 53.1 °F 63% 30.09 in 10.0 mi North 6.9 mph - N/A   Clear
6:51 PM 64.9 °F 51.1 °F 61% 30.11 in 10.0 mi Calm Calm - N/A   Clear
7:51 PM 64.0 °F 50.0 °F 60% 30.11 in 10.0 mi Calm Calm - N/A   Clear
8:51 PM 62.1 °F 48.0 °F 60% 30.12 in 10.0 mi North 3.5 mph - N/A   Clear
9:51 PM 62.1 °F 48.0 °F 60% 30.13 in 10.0 mi Calm Calm - N/A   Clear
10:51 PM 61.0 °F 45.0 °F 56% 30.13 in 10.0 mi Calm Calm - N/A   Clear
11:51 PM 57.9 °F 46.9 °F 67% 30.14 in 10.0 mi North 4.6 mph - N/A   Clear